This is the latest recevied weather packets stored in our database for station/object ON7EQ-13. If no packets are shown the sender has not sent any weather packets the latest 10 day(s).
| Time | Temp. | Humidity | Pressure | Rain* | Wind** | Luminosity | Snow |
|---|---|---|---|---|---|---|---|
| 1777830195 | 16.11° C | 99% | 1010.1 hPa | - | - | - | - |
| 1777829595 | 15.56° C | 99% | 1010 hPa | - | - | - | - |
| 1777828995 | 15.56° C | 99% | 1010.1 hPa | - | - | - | - |
| 1777828395 | 16.11° C | 99% | 1010 hPa | - | - | - | - |
| 1777827795 | 16.11° C | 99% | 1010.1 hPa | - | - | - | - |
| 1777827195 | 16.67° C | 98% | 1010 hPa | - | - | - | - |
| 1777826595 | 17.22° C | 98% | 1010 hPa | - | - | - | - |
| 1777825995 | 17.22° C | 97% | 1009.7 hPa | - | - | - | - |
| 1777825395 | 17.78° C | 96% | 1009.4 hPa | - | - | - | - |
| 1777824795 | 17.78° C | 93% | 1009.3 hPa | - | - | - | - |
| 1777824195 | 17.78° C | 92% | 1009.4 hPa | - | - | - | - |
| 1777823596 | 18.33° C | 91% | 1009.4 hPa | - | - | - | - |
| 1777822995 | 18.89° C | 89% | 1009.3 hPa | - | - | - | - |
| 1777822395 | 18.89° C | 88% | 1009.3 hPa | - | - | - | - |
| 1777821795 | 18.89° C | 86% | 1009.4 hPa | - | - | - | - |
| 1777821195 | 18.89° C | 85% | 1009.4 hPa | - | - | - | - |
| 1777820595 | 18.89° C | 86% | 1009.3 hPa | - | - | - | - |
| 1777819995 | 19.44° C | 85% | 1009.4 hPa | - | - | - | - |
| 1777819395 | 20° C | 84% | 1009.4 hPa | - | - | - | - |
| 1777818795 | 20° C | 88% | 1009.4 hPa | - | - | - | - |
| 1777818195 | 18.89° C | 90% | 1009.4 hPa | - | - | - | - |
| 1777817595 | 18.89° C | 89% | 1009.5 hPa | - | - | - | - |
| 1777816995 | 18.89° C | 88% | 1009.6 hPa | - | - | - | - |
| 1777816395 | 19.44° C | 90% | 1009.7 hPa | - | - | - | - |
| 1777815795 | 19.44° C | 94% | 1009.9 hPa | - | - | - | - |
* Rain since midnight (hover to see other rain measurements)
** Current wind speed in m/s (hover to see current wind gust speed)